Location: Cheching
(60.0667°N, 164.2167°W)
Time: 21:23:20
(UTC+00:00)

NOAA 15 - Pass Details

Date: 30 January 2021
Orbit: 798 x 812 km, 98.7° (Epoch: 07 March)

Event Time Altitude Azimuth Distance (km) Brightness Sun altitude
Rises 06:55:43 0° 209° (SSW) 3,310 8.0 -28.2°
Reaches altitude 10° 06:58:37 10° 225° (SW) 2,387 7.4 -28.6°
Maximum altitude 07:02:34 21° 274° (W) 1,749 7.0 -29.1°
Drops below altitude 10° 07:06:33 10° 322° (NW) 2,407 7.7 -29.5°
Sets 07:09:30 0° 339° (NNW) 3,345 8.3 -29.9°
